| time (UTC) | temp F | wind direction | speed MPH | gust MPH | rain 1hr in | rain 24hr in | rain mn in | humidity % | barometer mb |
| 20260503024123 | 82 | 360 | 0.0 | 0.0 | 0.00 | 0.00 | 0.00 | 17 | 1008.2 |
| 20260503023122 | 83 | 360 | 0.0 | 0.0 | 0.00 | 0.00 | 0.00 | 17 | 1008.2 |
| 20260503022123 | 84 | 360 | 0.0 | 0.0 | 0.00 | 0.00 | 0.00 | 16 | 1008.2 |
| 20260503021122 | 87 | 360 | 1.0 | 3.0 | 0.00 | 0.00 | 0.00 | 14 | 1008.3 |
| 20260503020122 | 87 | 360 | 1.0 | 3.0 | 0.00 | 0.00 | 0.00 | 14 | 1008.3 |
| 20260503015122 | 88 | 130 | 2.0 | 4.0 | 0.00 | 0.00 | 0.00 | 14 | 1008.3 |
| 20260503014122 | 88 | 350 | 3.0 | 5.0 | 0.00 | 0.00 | 0.00 | 14 | 1008.2 |
| 20260503013122 | 88 | 360 | 1.0 | 3.0 | 0.00 | 0.00 | 0.00 | 14 | 1008.2 |
| 20260503012143 | 88 | 2 | 2.0 | 3.0 | 0.00 | 0.00 | 0.00 | 14 | 1008.4 |
| 20260503011122 | 88 | 360 | 2.0 | 5.0 | 0.00 | 0.00 | 0.00 | 14 | 1008.3 |
| 20260503010123 | 89 | 1 | 3.0 | 6.0 | 0.00 | 0.00 | 0.00 | 14 | 1008.4 |
| 20260503005122 | 89 | 357 | 3.0 | 8.0 | 0.00 | 0.00 | 0.00 | 14 | 1008.4 |
| 20260503004122 | 89 | 3 | 4.0 | 9.0 | 0.00 | 0.00 | 0.00 | 14 | 1008.5 |
| 20260503003122 | 90 | 1 | 5.0 | 9.0 | 0.00 | 0.00 | 0.00 | 14 | 1008.5 |
| 20260503002122 | 89 | 7 | 4.0 | 10.0 | 0.00 | 0.00 | 0.00 | 14 | 1008.4 |
| 20260503001123 | 89 | 358 | 2.0 | 4.0 | 0.00 | 0.00 | 0.00 | 15 | 1008.5 |
| 20260503000123 | 89 | 24 | 4.0 | 9.0 | 0.00 | 0.00 | 0.00 | 14 | 1008.6 |
| 20260502235123 | 90 | 17 | 3.0 | 8.0 | 0.00 | 0.00 | 0.00 | 14 | 1008.6 |
| 20260502234122 | 90 | 15 | 4.0 | 8.0 | 0.00 | 0.00 | 0.00 | 15 | 1008.7 |
| 20260502233144 | 90 | 7 | 7.0 | 12.0 | 0.00 | 0.00 | 0.00 | 15 | 1008.9 |
| 20260502232122 | 91 | 6 | 9.0 | 16.0 | 0.00 | 0.00 | 0.00 | 14 | 1008.8 |
| 20260502231122 | 90 | 358 | 6.0 | 11.0 | 0.00 | 0.00 | 0.00 | 14 | 1008.7 |
| 20260502230144 | 91 | 359 | 8.0 | 15.0 | 0.00 | 0.00 | 0.00 | 14 | 1008.8 |
| 20260502225123 | 91 | 358 | 6.0 | 11.0 | 0.00 | 0.00 | 0.00 | 14 | 1008.8 |
| 20260502224122 | 90 | 358 | 4.0 | 11.0 | 0.00 | 0.00 | 0.00 | 15 | 1009.0 |
| 20260502223122 | 90 | 4 | 6.0 | 12.0 | 0.00 | 0.00 | 0.00 | 14 | 1009.4 |
| 20260502222143 | 89 | 353 | 4.0 | 10.0 | 0.00 | 0.00 | 0.00 | 14 | 1009.3 |
| 20260502221122 | 90 | 356 | 4.0 | 9.0 | 0.00 | 0.00 | 0.00 | 14 | 1009.5 |
| 20260502220123 | 90 | 0 | 6.0 | 11.0 | 0.00 | 0.00 | 0.00 | 15 | 1009.6 |
| 20260502215122 | 90 | 46 | 3.0 | 8.0 | 0.00 | 0.00 | 0.00 | 14 | 1009.7 |
| 20260502214123 | 89 | 358 | 3.0 | 5.0 | 0.00 | 0.00 | 0.00 | 15 | 1010.0 |
| 20260502213144 | 90 | 2 | 2.0 | 6.0 | 0.00 | 0.00 | 0.00 | 15 | 1010.1 |
| 20260502212144 | 92 | 15 | 5.0 | 10.0 | 0.00 | 0.00 | 0.00 | 16 | 1010.3 |
| 20260502211123 | 90 | 10 | 3.0 | 10.0 | 0.00 | 0.00 | 0.00 | 17 | 1010.3 |
| 20260502210122 | 90 | 2 | 4.0 | 12.0 | 0.00 | 0.00 | 0.00 | 17 | 1010.6 |
| 20260502205122 | 89 | 1 | 3.0 | 6.0 | 0.00 | 0.00 | 0.00 | 17 | 1010.7 |
| 20260502204123 | 87 | 23 | 3.0 | 5.0 | 0.00 | 0.00 | 0.00 | 18 | 1010.8 |
| 20260502203123 | 89 | 20 | 8.0 | 13.0 | 0.00 | 0.00 | 0.00 | 18 | 1011.1 |
| 20260502202144 | 89 | 7 | 8.0 | 15.0 | 0.00 | 0.00 | 0.00 | 19 | 1011.1 |
| 20260502201123 | 87 | 349 | 3.0 | 9.0 | 0.00 | 0.00 | 0.00 | 18 | 1011.1 |
| 20260502200122 | 90 | 10 | 7.0 | 15.0 | 0.00 | 0.00 | 0.00 | 17 | 1011.5 |
| 20260502195122 | 89 | 4 | 6.0 | 11.0 | 0.00 | 0.00 | 0.00 | 18 | 1011.6 |
| 20260502194144 | 88 | 12 | 5.0 | 12.0 | 0.00 | 0.00 | 0.00 | 19 | 1011.8 |
| 20260502193122 | 88 | 37 | 3.0 | 10.0 | 0.00 | 0.00 | 0.00 | 20 | 1011.8 |
| 20260502192123 | 89 | 23 | 6.0 | 13.0 | 0.00 | 0.00 | 0.00 | 19 | 1012.0 |
| 20260502191144 | 88 | 3 | 6.0 | 11.0 | 0.00 | 0.00 | 0.00 | 20 | 1012.1 |
| 20260502190123 | 87 | 355 | 4.0 | 10.0 | 0.00 | 0.00 | 0.00 | 20 | 1012.2 |
| 20260502185123 | 87 | 1 | 4.0 | 8.0 | 0.00 | 0.00 | 0.00 | 20 | 1012.5 |
| 20260502184123 | 86 | 356 | 4.0 | 10.0 | 0.00 | 0.00 | 0.00 | 22 | 1012.6 |
| 20260502183123 | 86 | 2 | 4.0 | 10.0 | 0.00 | 0.00 | 0.00 | 22 | 1012.6 |
| 20260502182123 | 86 | 358 | 5.0 | 10.0 | 0.00 | 0.00 | 0.00 | 23 | 1012.9 |
| 20260502181122 | 86 | 13 | 6.0 | 12.0 | 0.00 | 0.00 | 0.00 | 23 | 1013.0 |
| 20260502180144 | 87 | 17 | 5.0 | 11.0 | 0.00 | 0.00 | 0.00 | 23 | 1013.1 |
| 20260502170123 | 85 | 5 | 6.0 | 11.0 | 0.00 | 0.00 | 0.00 | 25 | 1013.4 |
| 20260502164123 | 84 | 1 | 6.0 | 11.0 | 0.00 | 0.00 | 0.00 | 26 | 1013.4 |
| 20260502163123 | 83 | 8 | 9.0 | 18.0 | 0.00 | 0.00 | 0.00 | 26 | 1013.3 |
| 20260502162123 | 83 | 8 | 7.0 | 14.0 | 0.00 | 0.00 | 0.00 | 26 | 1013.4 |
| 20260502161124 | 82 | 50 | 3.0 | 14.0 | 0.00 | 0.00 | 0.00 | 26 | 1013.3 |
| 20260502152121 | 81 | 10 | 3.0 | 8.0 | 0.00 | 0.00 | 0.00 | 30 | 1013.0 |
| 20260502151122 | 80 | 9 | 5.0 | 9.0 | 0.00 | 0.00 | 0.00 | 30 | 1013.0 |
| 20260502150122 | 79 | 0 | 9.0 | 14.0 | 0.00 | 0.00 | 0.00 | 31 | 1012.8 |
| 20260502140121 | 76 | 0 | 7.0 | 14.0 | 0.00 | 0.00 | 0.00 | 35 | 1012.3 |
| 20260502130122 | 73 | 1 | 8.0 | 13.0 | 0.00 | 0.00 | 0.00 | 34 | 1011.4 |
| 20260502123143 | 74 | 17 | 7.0 | 14.0 | 0.00 | 0.00 | 0.00 | 31 | 1011.0 |
| 20260502122122 | 74 | 6 | 8.0 | 15.0 | 0.00 | 0.00 | 0.00 | 29 | 1011.0 |
| 20260502121143 | 74 | 2 | 9.0 | 17.0 | 0.00 | 0.00 | 0.00 | 26 | 1010.8 |
| 20260502120122 | 74 | 0 | 10.0 | 17.0 | 0.00 | 0.00 | 0.00 | 23 | 1010.7 |
| 20260502115122 | 75 | 1 | 12.0 | 20.0 | 0.00 | 0.00 | 0.00 | 22 | 1010.7 |
| 20260502114123 | 75 | 1 | 13.0 | 22.0 | 0.00 | 0.00 | 0.00 | 22 | 1010.6 |
| 20260502113122 | 75 | 3 | 10.0 | 16.0 | 0.00 | 0.00 | 0.00 | 21 | 1010.5 |
| 20260502112122 | 76 | 1 | 14.0 | 21.0 | 0.00 | 0.00 | 0.00 | 21 | 1010.5 |
| 20260502111122 | 76 | 2 | 10.0 | 20.0 | 0.00 | 0.00 | 0.00 | 20 | 1010.5 |
| 20260502110122 | 76 | 2 | 12.0 | 20.0 | 0.00 | 0.00 | 0.00 | 20 | 1010.4 |
| 20260502105122 | 76 | 3 | 11.0 | 18.0 | 0.00 | 0.00 | 0.00 | 20 | 1010.6 |
| 20260502104143 | 76 | 2 | 9.0 | 16.0 | 0.00 | 0.00 | 0.00 | 20 | 1010.5 |
| 20260502103143 | 76 | 1 | 9.0 | 20.0 | 0.00 | 0.00 | 0.00 | 20 | 1010.4 |
| 20260502102123 | 76 | 1 | 8.0 | 15.0 | 0.00 | 0.00 | 0.00 | 20 | 1010.4 |
| 20260502101122 | 75 | 3 | 9.0 | 15.0 | 0.00 | 0.00 | 0.00 | 21 | 1010.4 |
| 20260502100122 | 76 | 2 | 9.0 | 13.0 | 0.00 | 0.00 | 0.00 | 20 | 1010.3 |
| 20260502091143 | 76 | 3 | 9.0 | 14.0 | 0.00 | 0.00 | 0.00 | 21 | 1010.5 |
| 20260502090122 | 76 | 0 | 9.0 | 14.0 | 0.00 | 0.00 | 0.00 | 21 | 1010.6 |
| 20260502071120 | 75 | 5 | 8.0 | 12.0 | 0.00 | 0.00 | 0.00 | 24 | 1010.6 |
| 20260502070121 | 73 | 6 | 7.0 | 11.0 | 0.00 | 0.00 | 0.00 | 25 | 1010.6 |
| 20260502065120 | 70 | 8 | 6.0 | 10.0 | 0.00 | 0.00 | 0.00 | 28 | 1010.5 |
| 20260502064120 | 68 | 7 | 5.0 | 8.0 | 0.00 | 0.00 | 0.00 | 28 | 1010.4 |
| 20260502063121 | 68 | 2 | 4.0 | 5.0 | 0.00 | 0.00 | 0.00 | 28 | 1010.4 |
| 20260502062121 | 68 | 360 | 3.0 | 4.0 | 0.00 | 0.00 | 0.00 | 29 | 1010.2 |
| 20260502061120 | 68 | 360 | 4.0 | 5.0 | 0.00 | 0.00 | 0.00 | 28 | 1010.1 |
| 20260502060121 | 69 | 43 | 3.0 | 4.0 | 0.00 | 0.00 | 0.00 | 27 | 1010.1 |
| 20260502055121 | 70 | 14 | 4.0 | 5.0 | 0.00 | 0.00 | 0.00 | 27 | 1010.0 |
| 20260502054122 | 70 | 1 | 3.0 | 5.0 | 0.00 | 0.00 | 0.00 | 27 | 1010.0 |
| 20260502053121 | 70 | 5 | 3.0 | 4.0 | 0.00 | 0.00 | 0.00 | 27 | 1009.9 |
| 20260502052120 | 70 | 11 | 4.0 | 4.0 | 0.00 | 0.00 | 0.00 | 27 | 1009.8 |
| 20260502051121 | 70 | 3 | 3.0 | 4.0 | 0.00 | 0.00 | 0.00 | 26 | 1009.8 |
| 20260502050121 | 71 | 10 | 3.0 | 4.0 | 0.00 | 0.00 | 0.00 | 26 | 1009.9 |
| 20260502045142 | 71 | 31 | 3.0 | 4.0 | 0.00 | 0.00 | 0.00 | 26 | 1009.8 |
| 20260502044121 | 72 | 16 | 3.0 | 3.0 | 0.00 | 0.00 | 0.00 | 26 | 1009.7 |
| 20260502043121 | 72 | 28 | 3.0 | 4.0 | 0.00 | 0.00 | 0.00 | 26 | 1009.6 |
| 20260502042142 | 71 | 13 | 4.0 | 5.0 | 0.00 | 0.00 | 0.00 | 26 | 1009.6 |
| 20260502041122 | 71 | 360 | 2.0 | 3.0 | 0.00 | 0.00 | 0.00 | 26 | 1009.3 |
| 20260502040121 | 72 | 360 | 2.0 | 3.0 | 0.00 | 0.00 | 0.00 | 25 | 1009.2 |
| 20260502035121 | 72 | 360 | 0.0 | 0.0 | 0.00 | 0.00 | 0.00 | 25 | 1009.1 |
| 20260502034121 | 73 | 360 | 0.0 | 0.0 | 0.00 | 0.00 | 0.00 | 25 | 1008.9 |
| 20260502033121 | 74 | 360 | 0.0 | 0.0 | 0.00 | 0.00 | 0.00 | 24 | 1008.7 |
| 20260502032121 | 75 | 360 | 0.0 | 1.0 | 0.00 | 0.00 | 0.00 | 24 | 1008.6 |
| 20260502031121 | 76 | 360 | 1.0 | 1.0 | 0.00 | 0.00 | 0.00 | 23 | 1008.5 |
| 20260502030121 | 77 | 360 | 2.0 | 2.0 | 0.00 | 0.00 | 0.00 | 22 | 1008.5 |
| 20260502025121 | 79 | 360 | 1.0 | 2.0 | 0.00 | 0.00 | 0.00 | 21 | 1008.4 |